Погода в Верхней Мазе

Россия / Ульяновская область     52°58′08″N   47°56′15″E
темп.,
°C
ветер,
м/с
пор.,
м/с
влажн.,
%
обл.,
%
осадки,
мм/ч
давл.,
гПа
погр.,
м
28 июня, вт
вт2801:00+18зсз31088100 0.1 1013215
04:00+16ссз35950 0.2 101393
07:00+16ссв69870 0.0 1014424
10:00+18ссв677269 0.0 1015991
13:00+19св775616 0.0 10161636
16:00+18ссв67495 0.0 10171818
19:00+16св475985 0.0 1017948
22:00+11св23814 0.0 101929
29 июня, ср
ср2901:00+9ссз22855 0.0 102011
04:00+8сз22880 0.0 102014
07:00+11ссз38694 0.0 1020345
10:00+15с68555 0.0 10201312
13:00+16ссв6857100 0.0 10201631
16:00+16с475990 0.0 10191542
19:00+16ссз3664100 0.0 1018243
22:00+12сз22755 0.0 101812
30 июня, чт
чт3001:00+10зсз22810 0.0 101820
04:00+9з33845 0.0 101728
07:00+12зсз497573 0.0 1016283
10:00+18сз6856100 0.0 1014779
13:00+21сз684496 0.0 10132579
16:00+20ссз7104354 0.0 10122352
19:00+17с4961100 0.0 1012637
22:00+14ссв396798 0.0 1013325
1 июля, пт
пт101:00+11с37766 0.0 1014165
04:00+9с37841 0.0 1016152
07:00+10с511730 0.0 1017679
10:00+14с79565 0.0 10171352
13:00+16с7954100 0.0 10171819
16:00+17ссв6958100 0.0 10171730
19:00+16с476398 0.0 1017503
22:00+11зсз22783 0.0 101811
2 июля, сб
сб201:00+11зсз22800 0.0 101724
04:00+10зсз22804 0.0 101724
07:00+14зсз37734 0.0 1017201
10:00+19сз465652 0.0 1016688
13:00+23сз464366 0.0 10151917
16:00+24зсз454483 0.0 10141868
19:00+23з356193 0.0 1013302
22:00+15ссз3996100 2.6 1014247